Time,TemperatureF,DewpointF,PressureIn,WindDirection,WindDirectionDegrees,WindSpeedMPH,WindSpeedGustMPH,Humidity,HourlyPrecipIn,Conditions,Clouds,dailyrainin,SoftwareType,DateUTC
2013-06-07 00:01:00,56.6,52.5,29.83,SSW,196,0.0,0.0,86,0.00,,---,0.00,VWS V14.01,2013-06-07 07:01:00,
2013-06-07 00:11:00,56.5,52.7,29.83,SSW,196,0.0,0.0,87,0.00,,---,0.00,VWS V14.01,2013-06-07 07:11:00,
2013-06-07 00:21:00,56.3,52.5,29.82,SSW,196,0.0,0.0,87,0.00,,---,0.00,VWS V14.01,2013-06-07 07:21:00,
2013-06-07 00:31:00,56.2,52.4,29.82,SSW,196,0.0,0.0,87,0.00,,---,0.00,VWS V14.01,2013-06-07 07:31:00,
2013-06-07 00:36:00,56.2,52.4,29.82,SSW,196,0.0,0.0,87,0.00,,---,0.00,VWS V14.01,2013-06-07 07:36:00,
2013-06-07 00:41:00,56.0,52.2,29.82,SSW,196,0.0,0.0,87,0.00,,---,0.00,VWS V14.01,2013-06-07 07:41:00,
2013-06-07 00:51:00,55.9,52.1,29.82,SSW,196,0.0,0.0,87,0.00,,---,0.00,VWS V14.01,2013-06-07 07:51:00,
2013-06-07 00:56:00,55.7,51.9,29.82,SSW,196,0.0,0.0,87,0.00,,---,0.00,VWS V14.01,2013-06-07 07:56:00,
2013-06-07 01:01:00,55.6,51.8,29.81,SSW,196,0.0,0.0,87,0.00,,---,0.00,VWS V14.01,2013-06-07 08:01:00,
2013-06-07 01:11:00,55.4,51.6,29.81,SSW,196,0.0,0.0,87,0.00,,---,0.00,VWS V14.01,2013-06-07 08:11:00,
2013-06-07 01:21:00,55.3,51.5,29.81,SSW,196,0.0,0.0,87,0.00,,---,0.00,VWS V14.01,2013-06-07 08:21:00,
2013-06-07 01:31:00,55.1,51.3,29.81,SSW,196,0.0,0.0,87,0.00,,---,0.00,VWS V14.01,2013-06-07 08:31:00,
2013-06-07 01:41:00,55.1,51.6,29.81,SSW,196,0.0,0.0,88,0.00,,---,0.00,VWS V14.01,2013-06-07 08:41:00,
2013-06-07 01:46:00,55.4,51.9,29.81,SSW,196,0.0,0.0,88,0.00,,---,0.00,VWS V14.01,2013-06-07 08:46:00,
2013-06-07 01:51:00,55.7,52.5,29.81,SSW,196,0.0,0.0,89,0.00,,---,0.00,VWS V14.01,2013-06-07 08:51:00,
2013-06-07 02:01:00,56.3,53.1,29.80,SSW,196,0.0,0.0,89,0.00,,---,0.00,VWS V14.01,2013-06-07 09:01:00,
2013-06-07 02:06:00,56.5,53.3,29.80,SSW,196,0.0,0.0,89,0.00,,---,0.00,VWS V14.01,2013-06-07 09:06:00,
2013-06-07 02:16:00,56.7,53.5,29.79,SSW,196,0.0,0.0,89,0.00,,---,0.00,VWS V14.01,2013-06-07 09:16:00,
2013-06-07 02:26:00,56.9,53.7,29.79,SSW,196,0.0,0.0,89,0.00,,---,0.00,VWS V14.01,2013-06-07 09:26:00,
2013-06-07 02:31:00,57.0,53.8,29.79,SSW,196,0.0,0.0,89,0.00,,---,0.00,VWS V14.01,2013-06-07 09:31:00,
2013-06-07 02:36:00,57.0,54.1,29.79,SSW,196,0.0,0.0,90,0.00,,---,0.00,VWS V14.01,2013-06-07 09:36:00,
2013-06-07 02:46:00,57.3,54.4,29.78,SSW,196,0.0,0.0,90,0.00,,---,0.00,VWS V14.01,2013-06-07 09:46:00,
2013-06-07 02:56:00,57.5,54.6,29.78,SSW,196,0.0,0.0,90,0.00,,---,0.00,VWS V14.01,2013-06-07 09:56:00,
2013-06-07 03:01:00,57.5,54.6,29.79,SSW,196,0.0,0.0,90,0.00,,---,0.00,VWS V14.01,2013-06-07 10:01:00,
2013-06-07 03:11:00,57.6,54.7,29.79,SSW,196,0.0,0.0,90,0.00,,---,0.00,VWS V14.01,2013-06-07 10:11:00,
2013-06-07 03:16:00,57.6,55.0,29.79,SSW,196,0.0,0.0,91,0.00,,---,0.00,VWS V14.01,2013-06-07 10:16:00,
2013-06-07 03:26:00,57.8,55.2,29.79,SSW,196,0.0,0.0,91,0.00,,---,0.00,VWS V14.01,2013-06-07 10:26:00,
2013-06-07 03:31:00,57.8,55.2,29.79,SSW,196,0.0,0.0,91,0.00,,---,0.00,VWS V14.01,2013-06-07 10:31:00,
2013-06-07 03:41:00,57.8,55.2,29.79,SSW,196,0.0,0.0,91,0.00,,---,0.00,VWS V14.01,2013-06-07 10:41:00,
2013-06-07 03:56:00,57.6,55.0,29.78,SSW,196,0.0,0.0,91,0.00,,---,0.00,VWS V14.01,2013-06-07 10:56:00,
2013-06-07 04:06:00,57.6,55.0,29.78,SSW,196,0.0,0.0,91,0.00,,---,0.00,VWS V14.01,2013-06-07 11:06:00,
2013-06-07 04:11:00,57.6,55.0,29.78,SSW,196,0.0,0.0,91,0.00,,---,0.00,VWS V14.01,2013-06-07 11:11:00,
2013-06-07 04:16:00,57.5,54.9,29.78,SSW,196,0.0,0.0,91,0.00,,---,0.00,VWS V14.01,2013-06-07 11:16:00,
2013-06-07 04:26:00,57.5,54.9,29.78,SSW,196,0.0,0.0,91,0.00,,---,0.00,VWS V14.01,2013-06-07 11:26:00,
2013-06-07 04:31:00,57.5,55.2,29.77,SSW,196,0.0,0.0,92,0.00,,---,0.00,VWS V14.01,2013-06-07 11:31:00,
2013-06-07 04:41:00,57.5,55.2,29.77,SSW,196,0.0,0.0,92,0.00,,---,0.00,VWS V14.01,2013-06-07 11:41:00,
2013-06-07 04:46:00,57.5,55.2,29.77,SSW,196,0.0,0.0,92,0.00,,---,0.00,VWS V14.01,2013-06-07 11:46:00,
2013-06-07 04:56:00,57.3,55.0,29.77,SSW,196,0.0,0.0,92,0.00,,---,0.00,VWS V14.01,2013-06-07 11:56:00,
2013-06-07 05:11:00,57.3,55.0,29.77,SSW,196,0.0,0.0,92,0.00,,---,0.00,VWS V14.01,2013-06-07 12:11:00,
2013-06-07 05:21:00,57.5,55.2,29.78,SSW,196,0.0,0.0,92,0.00,,---,0.00,VWS V14.01,2013-06-07 12:21:00,
2013-06-07 05:31:00,57.3,55.0,29.78,SSW,196,0.0,0.0,92,0.00,,---,0.00,VWS V14.01,2013-06-07 12:31:00,
2013-06-07 05:36:00,57.3,55.0,29.78,SSW,196,0.0,0.0,92,0.00,,---,0.00,VWS V14.01,2013-06-07 12:36:00,
2013-06-07 05:46:00,57.3,55.0,29.77,SSW,196,0.0,0.0,92,0.00,,---,0.00,VWS V14.01,2013-06-07 12:46:00,
2013-06-07 05:56:00,57.3,55.3,29.77,SSW,196,0.0,0.0,93,0.00,,---,0.00,VWS V14.01,2013-06-07 12:56:00,
2013-06-07 06:01:00,57.3,55.3,29.78,SSW,196,0.0,0.0,93,0.00,,---,0.00,VWS V14.01,2013-06-07 13:01:00,
2013-06-07 06:06:00,57.3,55.3,29.78,SSW,196,0.0,0.0,93,0.00,,---,0.00,VWS V14.01,2013-06-07 13:06:00,
2013-06-07 06:16:00,57.3,55.3,29.78,SSW,196,0.0,0.0,93,0.00,,---,0.00,VWS V14.01,2013-06-07 13:16:00,
2013-06-07 06:26:00,57.5,55.5,29.78,SSW,196,0.0,0.0,93,0.00,,---,0.00,VWS V14.01,2013-06-07 13:26:00,
2013-06-07 06:36:00,57.5,55.5,29.78,SSW,196,0.0,0.0,93,0.00,,---,0.00,VWS V14.01,2013-06-07 13:36:00,
2013-06-07 06:46:00,57.6,55.6,29.78,SSW,196,0.0,0.0,93,0.00,,---,0.00,VWS V14.01,2013-06-07 13:46:00,
2013-06-07 07:01:00,57.6,55.6,29.78,SSW,196,0.0,0.0,93,0.00,,---,0.00,VWS V14.01,2013-06-07 14:01:00,
2013-06-07 07:11:00,57.8,55.8,29.78,SSW,196,0.0,0.0,93,0.00,,---,0.00,VWS V14.01,2013-06-07 14:11:00,
2013-06-07 07:16:00,57.8,55.8,29.78,SSW,196,0.0,0.0,93,0.00,,---,0.00,VWS V14.01,2013-06-07 14:16:00,
2013-06-07 07:26:00,58.0,56.0,29.78,SSW,196,0.0,0.0,93,0.00,,---,0.00,VWS V14.01,2013-06-07 14:26:00,
2013-06-07 07:31:00,58.0,56.0,29.78,SSW,196,0.0,0.0,93,0.00,,---,0.00,VWS V14.01,2013-06-07 14:31:00,
2013-06-07 07:41:00,58.0,56.0,29.78,SSW,196,0.0,0.0,93,0.00,,---,0.00,VWS V14.01,2013-06-07 14:41:00,
2013-06-07 07:46:00,58.1,56.1,29.78,SSW,196,0.0,0.0,93,0.00,,---,0.00,VWS V14.01,2013-06-07 14:46:00,
2013-06-07 07:56:00,58.1,56.1,29.78,SSW,196,0.0,0.0,93,0.00,,---,0.00,VWS V14.01,2013-06-07 14:56:00,
2013-06-07 08:01:00,58.3,56.3,29.78,SSW,196,0.0,0.0,93,0.00,,---,0.00,VWS V14.01,2013-06-07 15:01:00,
2013-06-07 08:06:00,58.3,56.3,29.78,SSW,196,0.0,0.0,93,0.00,,---,0.00,VWS V14.01,2013-06-07 15:06:00,
2013-06-07 08:16:00,58.6,56.6,29.79,SSW,196,0.0,0.0,93,0.00,,---,0.00,VWS V14.01,2013-06-07 15:16:00,
2013-06-07 08:26:00,58.6,56.6,29.79,SSW,196,0.0,0.0,93,0.00,,---,0.00,VWS V14.01,2013-06-07 15:26:00,
2013-06-07 08:31:00,58.7,56.7,29.79,SSW,196,0.0,0.0,93,0.00,,---,0.00,VWS V14.01,2013-06-07 15:31:00,
2013-06-07 08:36:00,58.9,56.9,29.79,SSW,196,0.0,0.0,93,0.00,,---,0.00,VWS V14.01,2013-06-07 15:36:00,
2013-06-07 08:41:00,59.0,57.0,29.79,South,182,0.0,0.0,93,0.00,,---,0.00,VWS V14.01,2013-06-07 15:41:00,
2013-06-07 08:46:00,59.2,57.2,29.79,South,182,0.0,0.0,93,0.00,,---,0.00,VWS V14.01,2013-06-07 15:46:00,
2013-06-07 09:01:00,59.8,57.2,29.79,SW,219,0.0,0.0,91,0.00,,---,0.00,VWS V14.01,2013-06-07 16:01:00,
2013-06-07 09:06:00,60.1,57.5,29.79,SW,219,0.0,0.0,91,0.00,,---,0.00,VWS V14.01,2013-06-07 16:06:00,
2013-06-07 09:16:00,61.2,58.2,29.79,SSW,212,0.0,0.0,90,0.00,,---,0.00,VWS V14.01,2013-06-07 16:16:00,
2013-06-07 09:26:00,61.6,57.7,29.79,WSW,246,0.0,0.0,87,0.00,,---,0.00,VWS V14.01,2013-06-07 16:26:00,
2013-06-07 09:41:00,63.5,58.9,29.78,South,174,0.0,0.0,85,0.00,,---,0.00,VWS V14.01,2013-06-07 16:41:00,
2013-06-07 09:56:00,65.3,59.3,29.78,SSW,198,0.0,0.0,81,0.00,,---,0.00,VWS V14.01,2013-06-07 16:56:00,
2013-06-07 10:01:00,66.0,59.3,29.78,SW,216,0.0,0.0,79,0.00,,---,0.00,VWS V14.01,2013-06-07 17:01:00,
2013-06-07 10:11:00,67.1,59.3,29.78,SSW,210,0.0,0.0,76,0.00,,---,0.00,VWS V14.01,2013-06-07 17:11:00,
2013-06-07 10:21:00,67.3,58.7,29.78,SW,222,0.0,0.0,74,0.00,,---,0.00,VWS V14.01,2013-06-07 17:21:00,
2013-06-07 10:31:00,67.6,58.7,29.78,WSW,239,0.0,0.0,73,0.00,,---,0.00,VWS V14.01,2013-06-07 17:31:00,
2013-06-07 10:36:00,68.4,59.4,29.78,West,271,0.0,0.0,73,0.00,,---,0.00,VWS V14.01,2013-06-07 17:36:00,
2013-06-07 10:41:00,69.3,60.7,29.78,South,189,0.0,0.0,74,0.00,,---,0.00,VWS V14.01,2013-06-07 17:41:00,
2013-06-07 10:51:00,70.3,60.5,29.78,South,169,0.0,0.0,71,0.00,,---,0.00,VWS V14.01,2013-06-07 17:51:00,
2013-06-07 11:01:00,72.0,60.9,29.77,SSW,206,0.0,1.0,68,0.00,,---,0.00,VWS V14.01,2013-06-07 18:01:00,
2013-06-07 11:21:00,73.5,61.5,29.76,South,188,0.0,0.0,66,0.00,,---,0.00,VWS V14.01,2013-06-07 18:21:00,
2013-06-07 11:31:00,74.2,60.8,29.76,SW,217,0.0,5.0,63,0.00,,---,0.00,VWS V14.01,2013-06-07 18:31:00,
2013-06-07 11:41:00,74.9,61.5,29.76,SW,220,0.0,6.0,63,0.00,,---,0.00,VWS V14.01,2013-06-07 18:41:00,
2013-06-07 12:01:00,75.4,61.0,29.75,WSW,244,0.0,2.0,61,0.00,,---,0.00,VWS V14.01,2013-06-07 19:01:00,
2013-06-07 12:06:00,76.0,61.6,29.75,SW,216,0.0,1.0,61,0.00,,---,0.00,VWS V14.01,2013-06-07 19:06:00,
2013-06-07 12:26:00,76.7,61.8,29.75,WSW,254,0.0,5.0,60,0.00,,---,0.00,VWS V14.01,2013-06-07 19:26:00,
2013-06-07 12:36:00,77.0,61.1,29.75,WSW,240,0.0,2.0,58,0.00,,---,0.00,VWS V14.01,2013-06-07 19:36:00,
2013-06-07 12:41:00,77.4,62.0,29.75,SW,229,3.0,11.0,59,0.00,,---,0.00,VWS V14.01,2013-06-07 19:41:00,
2013-06-07 12:46:00,78.3,61.8,29.74,WSW,253,0.0,10.0,57,0.00,,---,0.00,VWS V14.01,2013-06-07 19:46:00,
2013-06-07 12:51:00,78.5,62.0,29.74,SSW,209,0.0,10.0,57,0.00,,---,0.00,VWS V14.01,2013-06-07 19:51:00,
2013-06-07 12:56:00,78.5,61.5,29.74,SW,229,0.0,7.0,56,0.00,,---,0.00,VWS V14.01,2013-06-07 19:56:00,
2013-06-07 13:06:00,78.5,61.5,29.74,SW,222,7.0,8.0,56,0.00,,---,0.00,VWS V14.01,2013-06-07 20:06:00,
2013-06-07 13:11:00,78.6,62.1,29.74,SW,224,0.0,9.0,57,0.00,,---,0.00,VWS V14.01,2013-06-07 20:11:00,
2013-06-07 13:26:00,78.3,61.8,29.74,WSW,237,0.0,9.0,57,0.00,,---,0.00,VWS V14.01,2013-06-07 20:26:00,
2013-06-07 13:41:00,79.4,61.8,29.73,SW,223,5.0,12.0,55,0.00,,---,0.00,VWS V14.01,2013-06-07 20:41:00,
2013-06-07 13:51:00,78.6,62.1,29.73,WSW,253,0.0,10.0,57,0.00,,---,0.00,VWS V14.01,2013-06-07 20:51:00,
2013-06-07 13:56:00,78.8,61.8,29.73,WSW,241,0.0,8.0,56,0.00,,---,0.00,VWS V14.01,2013-06-07 20:56:00,
2013-06-07 14:16:00,80.5,62.3,29.72,SW,227,0.0,7.0,54,0.00,,---,0.00,VWS V14.01,2013-06-07 21:16:00,
2013-06-07 14:26:00,79.8,61.7,29.72,WSW,237,0.0,8.0,54,0.00,,---,0.00,VWS V14.01,2013-06-07 21:26:00,
2013-06-07 14:31:00,79.8,62.2,29.72,SSW,205,1.0,8.0,55,0.00,,---,0.00,VWS V14.01,2013-06-07 21:31:00,
2013-06-07 14:46:00,80.7,62.0,29.71,WSW,241,0.0,8.0,53,0.00,,---,0.00,VWS V14.01,2013-06-07 21:46:00,
2013-06-07 15:01:00,80.9,62.2,29.71,SSW,206,2.0,8.0,53,0.00,,---,0.00,VWS V14.01,2013-06-07 22:01:00,
2013-06-07 15:11:00,80.9,62.7,29.71,WSW,256,1.0,8.0,54,0.00,,---,0.00,VWS V14.01,2013-06-07 22:11:00,
2013-06-07 15:16:00,80.5,62.3,29.70,SW,232,0.0,10.0,54,0.00,,---,0.00,VWS V14.01,2013-06-07 22:16:00,
2013-06-07 15:51:00,80.7,62.5,29.69,SW,226,5.0,10.0,54,0.00,,---,0.00,VWS V14.01,2013-06-07 22:51:00,
2013-06-07 15:56:00,81.2,62.5,29.69,West,261,0.0,5.0,53,0.00,,---,0.00,VWS V14.01,2013-06-07 22:56:00,
2013-06-07 16:06:00,80.3,62.2,29.69,WSW,237,0.0,8.0,54,0.00,,---,0.00,VWS V14.01,2013-06-07 23:06:00,
2013-06-07 16:21:00,79.6,62.0,29.68,SSW,212,0.0,7.0,55,0.00,,---,0.00,VWS V14.01,2013-06-07 23:21:00,
2013-06-07 16:26:00,79.6,62.5,29.68,WSW,241,0.0,6.0,56,0.00,,---,0.00,VWS V14.01,2013-06-07 23:26:00,
2013-06-07 16:31:00,79.6,62.0,29.68,SW,232,6.0,10.0,55,0.00,,---,0.00,VWS V14.01,2013-06-07 23:31:00,
2013-06-07 16:46:00,79.2,61.1,29.69,WSW,258,8.0,10.0,54,0.00,,---,0.00,VWS V14.01,2013-06-07 23:46:00,
2013-06-07 16:51:00,78.1,61.6,29.69,WSW,246,0.0,8.0,57,0.00,,---,0.00,VWS V14.01,2013-06-07 23:51:00,
2013-06-07 17:01:00,77.6,61.2,29.68,SW,229,1.0,8.0,57,0.00,,---,0.00,VWS V14.01,2013-06-08 00:01:00,
2013-06-07 17:11:00,77.0,61.6,29.68,WNW,291,0.0,8.0,59,0.00,,---,0.00,VWS V14.01,2013-06-08 00:11:00,
2013-06-07 17:16:00,76.8,60.9,29.68,WSW,240,0.0,9.0,58,0.00,,---,0.00,VWS V14.01,2013-06-08 00:16:00,
2013-06-07 17:26:00,77.4,61.5,29.68,West,263,0.0,5.0,58,0.00,,---,0.00,VWS V14.01,2013-06-08 00:26:00,
2013-06-07 17:36:00,77.0,61.1,29.69,SW,236,0.0,10.0,58,0.00,,---,0.00,VWS V14.01,2013-06-08 00:36:00,
2013-06-07 17:41:00,76.8,61.4,29.69,SW,232,0.0,6.0,59,0.00,,---,0.00,VWS V14.01,2013-06-08 00:41:00,
2013-06-07 17:46:00,77.0,61.6,29.69,WSW,240,0.0,1.0,59,0.00,,---,0.00,VWS V14.01,2013-06-08 00:46:00,
2013-06-07 17:51:00,76.7,61.3,29.69,SW,229,0.0,11.0,59,0.00,,---,0.00,VWS V14.01,2013-06-08 00:51:00,
2013-06-07 18:01:00,76.0,61.1,29.69,SW,232,0.0,8.0,60,0.00,,---,0.00,VWS V14.01,2013-06-08 01:01:00,
2013-06-07 18:06:00,75.4,60.6,29.69,SW,219,0.0,7.0,60,0.00,,---,0.00,VWS V14.01,2013-06-08 01:06:00,
2013-06-07 18:21:00,74.6,60.7,29.69,SSW,203,0.0,7.0,62,0.00,,---,0.00,VWS V14.01,2013-06-08 01:21:00,
2013-06-07 18:31:00,73.7,59.9,29.69,WNW,287,0.0,4.0,62,0.00,,---,0.00,VWS V14.01,2013-06-08 01:31:00,
2013-06-07 18:36:00,73.0,60.1,29.69,WSW,248,0.0,6.0,64,0.00,,---,0.00,VWS V14.01,2013-06-08 01:36:00,
2013-06-07 18:46:00,72.0,59.6,29.70,SW,232,0.0,0.0,65,0.00,,---,0.00,VWS V14.01,2013-06-08 01:46:00,
2013-06-07 18:56:00,71.1,59.6,29.70,SW,232,0.0,0.0,67,0.00,,---,0.00,VWS V14.01,2013-06-08 01:56:00,
2013-06-07 19:11:00,69.8,58.8,29.70,SW,232,0.0,0.0,68,0.00,,---,0.00,VWS V14.01,2013-06-08 02:11:00,
2013-06-07 19:16:00,69.6,59.0,29.70,SW,232,0.0,0.0,69,0.00,,---,0.00,VWS V14.01,2013-06-08 02:16:00,
2013-06-07 19:31:00,68.4,58.6,29.71,SW,232,0.0,0.0,71,0.00,,---,0.00,VWS V14.01,2013-06-08 02:31:00,
2013-06-07 19:36:00,68.1,58.3,29.71,SW,232,0.0,0.0,71,0.00,,---,0.00,VWS V14.01,2013-06-08 02:36:00,
2013-06-07 19:41:00,67.8,58.5,29.71,SW,232,0.0,0.0,72,0.00,,---,0.00,VWS V14.01,2013-06-08 02:41:00,
2013-06-07 20:01:00,66.1,58.0,29.72,SW,232,0.0,0.0,75,0.00,,---,0.00,VWS V14.01,2013-06-08 03:01:00,
2013-06-07 20:21:00,64.7,57.7,29.73,SW,232,0.0,0.0,78,0.00,,---,0.00,VWS V14.01,2013-06-08 03:21:00,
2013-06-07 20:41:00,63.4,57.1,29.73,SW,232,0.0,0.0,80,0.00,,---,0.00,VWS V14.01,2013-06-08 03:41:00,
2013-06-07 20:56:00,62.7,57.1,29.74,SW,232,0.0,0.0,82,0.00,,---,0.00,VWS V14.01,2013-06-08 03:56:00,
2013-06-07 21:01:00,62.6,57.0,29.74,SW,232,0.0,0.0,82,0.00,,---,0.00,VWS V14.01,2013-06-08 04:01:00,
2013-06-07 21:11:00,62.3,57.1,29.74,SW,232,0.0,0.0,83,0.00,,---,0.00,VWS V14.01,2013-06-08 04:11:00,
2013-06-07 21:16:00,62.0,56.8,29.74,SW,232,0.0,0.0,83,0.00,,---,0.00,VWS V14.01,2013-06-08 04:16:00,
2013-06-07 21:21:00,61.8,56.9,29.74,SW,232,0.0,0.0,84,0.00,,---,0.00,VWS V14.01,2013-06-08 04:21:00,
2013-06-07 21:26:00,61.8,56.9,29.74,SW,232,0.0,0.0,84,0.00,,---,0.00,VWS V14.01,2013-06-08 04:26:00,
2013-06-07 21:36:00,61.5,57.0,29.75,SW,232,0.0,0.0,85,0.00,,---,0.00,VWS V14.01,2013-06-08 04:36:00,
2013-06-07 21:41:00,61.3,56.8,29.75,SW,232,0.0,0.0,85,0.00,,---,0.00,VWS V14.01,2013-06-08 04:41:00,
2013-06-07 21:51:00,61.2,57.0,29.75,SW,232,0.0,0.0,86,0.00,,---,0.00,VWS V14.01,2013-06-08 04:51:00,
2013-06-07 22:01:00,60.9,56.7,29.75,SW,232,0.0,0.0,86,0.00,,---,0.00,VWS V14.01,2013-06-08 05:01:00,
2013-06-07 22:06:00,60.9,56.7,29.75,SW,232,0.0,0.0,86,0.00,,---,0.00,VWS V14.01,2013-06-08 05:06:00,
2013-06-07 22:16:00,60.5,56.3,29.75,SW,232,0.0,0.0,86,0.00,,---,0.00,VWS V14.01,2013-06-08 05:16:00,
2013-06-07 22:26:00,60.4,56.5,29.75,SW,232,0.0,0.0,87,0.00,,---,0.00,VWS V14.01,2013-06-08 05:26:00,
2013-06-07 22:36:00,60.2,56.3,29.75,SW,232,0.0,0.0,87,0.00,,---,0.00,VWS V14.01,2013-06-08 05:36:00,
2013-06-07 22:46:00,59.9,56.3,29.75,SW,232,0.0,0.0,88,0.00,,---,0.00,VWS V14.01,2013-06-08 05:46:00,
2013-06-07 22:51:00,59.9,56.3,29.75,SW,232,0.0,0.0,88,0.00,,---,0.00,VWS V14.01,2013-06-08 05:51:00,
2013-06-07 22:56:00,59.8,56.2,29.75,SW,232,0.0,0.0,88,0.00,,---,0.00,VWS V14.01,2013-06-08 05:56:00,
2013-06-07 23:06:00,59.6,56.0,29.75,SW,232,0.0,0.0,88,0.00,,---,0.00,VWS V14.01,2013-06-08 06:06:00,
2013-06-07 23:11:00,59.5,56.0,29.75,SW,232,0.0,0.0,88,0.00,,---,0.00,VWS V14.01,2013-06-08 06:11:00,
2013-06-07 23:21:00,59.5,56.3,29.75,SW,232,0.0,0.0,89,0.00,,---,0.00,VWS V14.01,2013-06-08 06:21:00,
2013-06-07 23:26:00,59.5,56.3,29.75,SW,232,0.0,0.0,89,0.00,,---,0.00,VWS V14.01,2013-06-08 06:26:00,
2013-06-07 23:31:00,59.5,56.3,29.75,SW,232,0.0,0.0,89,0.00,,---,0.00,VWS V14.01,2013-06-08 06:31:00,
2013-06-07 23:41:00,59.6,56.4,29.75,SW,232,0.0,0.0,89,0.00,,---,0.00,VWS V14.01,2013-06-08 06:41:00,
2013-06-07 23:51:00,59.6,56.4,29.75,SW,232,0.0,0.0,89,0.00,,---,0.00,VWS V14.01,2013-06-08 06:51:00,
2013-06-07 23:56:00,59.8,56.9,29.75,SW,232,0.0,0.0,90,0.00,,---,0.00,VWS V14.01,2013-06-08 06:56:00,